Change the Weather History Date:

Tuesday, January 1, 2013

  Actual Average Record
Temperature  
Mean Temperature 50 °F -  
Max Temperature 62 °F 59 °F 64 °F (1997)
Min Temperature 39 °F 42 °F 28 °F (2009)
Degree Days  
Heating Degree Days 14    
Moisture  
Dew Point 33 °F    
Average Humidity 57    
Maximum Humidity 81    
Minimum Humidity 22    
Precipitation  
Precipitation 0.00 in - - ()
Sea Level Pressure  
Sea Level Pressure 30.12 in    
Wind  
Wind Speed 7 mph ()    
Max Wind Speed 16 mph    
Max Gust Speed -    
Visibility 6.0 miles    
Events      
Averages and records for this station are not official NWS values.
T = Trace of Precipitation, MM = Missing Value Source: Averaged Metar Reports

Daily Weather History Graph

Daily Weather History Graph

Search for Another Location

Airport or City:

Trip Planner

Search our weather history database for the weather conditions in past years. The results will help you decide how hot, cold, wet, or windy it might be!

Date:

Astronomy

Jan. 01, 2013 Rise Set
Actual Time 6:51 AM EET 4:32 PM EET
Civil Twilight 6:22 AM EET 5:01 PM EET
Nautical Twilight 5:50 AM EET 5:33 PM EET
Astronomical Twilight 5:18 AM EET 6:05 PM EET
Moon 8:35 PM EET (1/1) 8:59 AM EET (1/1)
Length of Visible Light 10h 38m
Length of Day
9h 40m
Waning Gibbous, 85% of the Moon is Illuminated
Jan 1
Waning Gibbous
Jan 5
Last Quarter
Jan 11
New
Jan 19
First Quarter
Jan 27
Full

Hourly Weather History & Observations

Time (EET) Temp. Windchill Dew Point Humidity Pressure Visibility Wind Dir Wind Speed Gust Speed Precip Events Conditions
12:20 AM 42.8 °F 40.1 °F 32.0 °F 66% 30.15 in - NE 4.6 mph - N/A   Clear
12:50 AM 41.0 °F 35.2 °F 32.0 °F 70% 30.15 in - NE 9.2 mph - N/A   Clear
1:20 AM 42.8 °F 36.6 °F 33.8 °F 70% 30.15 in - NE 11.5 mph - N/A   Clear
1:50 AM 42.8 °F 37.0 °F 32.0 °F 66% 30.15 in - NE 10.4 mph - N/A   Clear
2:00 AM 43 °F - 33 °F 59% 30.15 in 6 mi NE 10.4 mph - -  
2:20 AM 42.8 °F 37.0 °F 32.0 °F 66% 30.12 in - NNE 10.4 mph - N/A   Clear
2:50 AM 42.8 °F 37.5 °F 32.0 °F 66% 30.12 in - NE 9.2 mph - N/A   Clear
3:20 AM 42.8 °F 39.3 °F 30.2 °F 61% 30.12 in - North 5.8 mph - N/A   Clear
3:50 AM 44.6 °F 42.2 °F 30.2 °F 57% 30.12 in - NNW 4.6 mph - N/A   Clear
4:20 AM 44.6 °F 42.2 °F 28.4 °F 53% 30.12 in - NNE 4.6 mph - N/A   Clear
4:50 AM 41.0 °F - 30.2 °F 65% 30.12 in - Calm Calm - N/A   Clear
5:20 AM 42.8 °F 41.1 °F 32.0 °F 66% 30.12 in - NW 3.5 mph - N/A   Clear
5:50 AM 39.2 °F 37.0 °F 32.0 °F 75% 30.12 in - NNW 3.5 mph - N/A   Clear
6:20 AM 41.0 °F - 30.2 °F 65% 30.12 in - WNW 2.3 mph - N/A   Clear
6:50 AM 39.2 °F 37.0 °F 32.0 °F 75% 30.12 in - WNW 3.5 mph - N/A   Clear
7:20 AM 41.0 °F 39.0 °F 32.0 °F 70% 30.12 in - NNW 3.5 mph - N/A   Clear
7:50 AM 42.8 °F 41.1 °F 32.0 °F 66% 30.12 in - WNW 3.5 mph - N/A   Clear
8:00 AM 42 °F - 31 °F 54% 30.14 in 6 mi WNW 3.5 mph - -  
8:20 AM 44.6 °F 42.2 °F 35.6 °F 71% 30.15 in - NW 4.6 mph - N/A   Clear
8:50 AM 50.0 °F - 33.8 °F 54% 30.15 in - NNE 5.8 mph - N/A   Clear
9:20 AM 55.4 °F - 30.2 °F 38% 30.15 in - NE 8.1 mph - N/A   Clear
9:50 AM 55.4 °F - 30.2 °F 38% 30.15 in - NE 16.1 mph - N/A   Clear
10:20 AM 57.2 °F - 30.2 °F 36% 30.12 in - NE 11.5 mph - N/A   Clear
10:50 AM 59.0 °F - 30.2 °F 34% 30.12 in - NE 13.8 mph - N/A   Clear
11:20 AM 59.0 °F - 32.0 °F 36% 30.12 in - NE 11.5 mph - N/A   Clear
11:50 AM 60.8 °F - 32.0 °F 34% 30.12 in - NNE 10.4 mph - N/A   Clear
12:20 PM 60.8 °F - 33.8 °F 36% 30.09 in - NNE 8.1 mph - N/A   Clear
12:50 PM 60.8 °F - 32.0 °F 34% 30.09 in - NE 9.2 mph - N/A   Clear
1:20 PM 60.8 °F - 32.0 °F 34% 30.09 in - NE 9.2 mph - N/A   Clear
1:50 PM 60.8 °F - 32.0 °F 34% 30.09 in - ENE 8.1 mph - N/A   Clear
2:00 PM 61 °F - 32 °F 22% 30.11 in 6 mi ENE 8.1 mph - -  
2:20 PM 60.8 °F - 32.0 °F 34% 30.09 in - ENE 4.6 mph - N/A   Clear
2:50 PM 60.8 °F - 35.6 °F 39% 30.09 in - NE 6.9 mph - N/A   Clear
3:20 PM 59.0 °F - 35.6 °F 42% 30.09 in - NE 6.9 mph - N/A   Clear
3:50 PM 57.2 °F - 37.4 °F 48% 30.09 in - NNE 5.8 mph - N/A   Clear
4:20 PM 55.4 °F - 37.4 °F 51% 30.09 in - NNE 5.8 mph - N/A   Clear
4:50 PM 53.6 °F - 37.4 °F 54% 30.09 in - NNE 4.6 mph - N/A   Clear
5:20 PM 48.2 °F - 37.4 °F 66% 30.09 in - NNE 5.8 mph - N/A   Clear
5:50 PM 44.6 °F 40.7 °F 39.2 °F 81% 30.12 in - NE 6.9 mph - N/A   Clear
6:20 PM 44.6 °F 40.7 °F 37.4 °F 76% 30.12 in - NNE 6.9 mph - N/A   Clear
6:50 PM 44.6 °F 41.4 °F 37.4 °F 76% 30.12 in - North 5.8 mph - N/A   Clear
7:20 PM 46.4 °F 43.5 °F 35.6 °F 66% 30.12 in - North 5.8 mph - N/A   Clear
7:50 PM 46.4 °F 42.9 °F 35.6 °F 66% 30.12 in - North 6.9 mph - N/A   Clear
8:00 PM 47 °F - 35 °F 52% 30.14 in 6 mi North 6.9 mph - -  
8:20 PM 48.2 °F - 33.8 °F 58% 30.15 in - East 2.3 mph - N/A   Clear
8:50 PM 48.2 °F - 37.4 °F 66% 30.15 in - NNW 4.6 mph - N/A   Clear
9:20 PM 42.8 °F 39.3 °F 37.4 °F 81% 30.15 in - North 5.8 mph - N/A   Clear
9:50 PM 44.6 °F 40.7 °F 33.8 °F 66% 30.15 in - NNE 6.9 mph - N/A   Clear
10:20 PM 42.8 °F 37.5 °F 33.8 °F 70% 30.15 in - NE 9.2 mph - N/A   Clear
10:50 PM 42.8 °F 36.6 °F 33.8 °F 70% 30.15 in - NE 11.5 mph - N/A   Clear
11:20 PM 42.8 °F 37.0 °F 33.8 °F 70% 30.15 in - NE 10.4 mph - N/A   Clear
11:50 PM 42.8 °F 37.5 °F 33.8 °F 70% 30.15 in - NE 9.2 mph - N/A   Clear